[[{"header":{"parameterUnit":"m.s-1","parameterCategory":1,"la1":30.2992,"la2":30.254,"lo1":-89.0895,"lo2":-89.0443,"dy":0.0025,"dx":0.0025,"nx":19,"ny":19,"refTime":"2026-03-27T03:00:00:Z","depth":0,"parameterNumber":2,"parameterNumberName":"U-component_of_WINDS"},"data":[0,0,0,-2.334,-2.3341,-2.3386,-2.3386,-2.3451,-2.3451,0,0,0,0,0,0,0,0,0,0,0,-2.3332,-2.3333,-2.334,-2.3341,-2.3386,-2.3386,-2.3451,-2.3451,0,0,0,0,0,0,0,0,0,0,0,-2.3332,-2.3333,-2.3333,-2.3341,-2.3386,-2.3386,-2.345,-2.3414,0,0,0,0,0,0,0,0,0,0,-2.3369,-2.3367,-2.3332,-2.3333,-2.3342,-2.3386,-2.3386,-2.3412,-2.3416,-2.3434,0,-2.3452,0,-2.3453,-2.3456,-2.3456,0,0,0,-2.3337,-2.3364,-2.3371,-2.3333,-2.3342,-2.3386,-2.3365,-2.3414,-2.3419,-2.344,-2.3452,-2.3455,-2.3454,-2.3457,-2.3457,-2.3573,-2.3574,0,0,-2.3335,-2.3343,-2.3368,-2.3374,-2.3368,-2.3363,-2.3366,-2.3417,-2.3431,-2.3453,-2.3456,-2.3455,-2.3457,-2.3458,-2.3573,-2.3574,0,0,0,-2.3331,-2.3341,-2.3347,-2.3372,-2.3379,-2.3365,-2.3368,-2.3429,-2.343,-2.3457,-2.3455,-2.3458,-2.3458,-2.3572,-2.3573,-2.3617,0,0,0,-2.3329,-2.3339,-2.3346,-2.3352,-2.3379,-2.3405,-2.3379,-2.3427,-2.3432,-2.3455,-2.3458,-2.3459,-2.3571,-2.3572,-2.3614,-2.3637,0,0,0,-2.3327,-2.3339,-2.3347,-2.3352,-2.3371,-2.3404,-2.3408,-2.3428,-2.3432,-2.3457,-2.3459,-2.357,-2.3572,-2.3612,-2.3633,-2.3671,0,0,0,-2.3328,-2.3385,-2.3348,-2.3411,-2.3371,-2.3431,-2.3407,-2.3451,-2.3478,-2.3458,-2.3571,-2.3573,-2.3611,-2.363,-2.3668,-2.3705,-2.3721,0,0,-2.3405,-2.3395,-2.3431,-2.3399,-2.3467,-2.3423,-2.3498,-2.3514,-2.3509,-2.3552,-2.3555,-2.3615,-2.3633,-2.367,-2.3805,-2.3817,0,0,0,-2.3458,-2.3485,-2.3501,-2.3527,-2.3541,-2.3554,-2.3558,-2.3564,-2.36,-2.3533,-2.3638,-2.3648,-2.367,-2.3687,-2.3698,-2.3716,-2.3581,-2.3581,-2.3581,-2.3579,-2.3569,-2.3629,-2.3625,-2.365,-2.3653,-2.3672,-2.368,-2.3663,-2.3688,-2.3701,-2.3784,-2.3805,-2.3813,-2.3832,-2.3719,-2.3719,-2.3719,-2.3719,-2.3691,-2.3728,-2.3703,-2.3752,-2.3741,-2.3782,-2.3787,-2.3773,-2.3809,-2.3773,-2.3792,-2.3755,-2.3827,-2.3843,-2.3723,-2.3722,-2.3722,-2.3721,-2.3721,-2.3771,-2.3786,-2.3792,-2.3828,-2.3856,-2.3849,-2.3885,-2.3873,-2.3862,-2.3881,-2.3893,-2.3893,-2.3891,-2.3887,-2.3888,-2.3888,-2.3888,-2.3888,-2.3888,-2.3851,-2.3856,-2.3888,-2.3907,-2.3922,-2.3939,-2.3942,-2.3956,-2.3969,-2.3957,-2.3957,-2.3938,-2.3835,-2.3811,-2.3893,-2.3892,-2.3892,-2.3891,-2.3891,-2.397,-2.3941,-2.3991,-2.4006,-2.4026,-2.4055,-2.4039,-2.4069,-2.4078,-2.4096,-2.4072,-2.3998,-2.3987,-2.3979,-2.3958,-2.4074,-2.4074,-2.4074,-2.4074,-2.4038,-2.403,-2.4079,-2.4103,-2.4125,-2.4115,-2.4172,-2.4174,-2.4172,-2.4177,-2.4158,-2.4129,-2.4121,-2.4115,-2.4104,-2.4084,-2.4229,-2.423,-2.423,-2.4111,-2.4105,-2.4156,-2.4153,-2.4169,-2.4182,-2.4234,-2.4263,-2.4254,-2.4236,-2.4181,-2.4175,-2.4128,-2.4113,-2.4095,-2.4077,-2.4042,0,0]},{"header":{"parameterUnit":"m.s-1","parameterCategory":1,"la1":30.2992,"la2":30.254,"lo1":-89.0895,"lo2":-89.0443,"dy":0.0025,"dx":0.0025,"nx":19,"ny":19,"refTime":"2026-03-27T03:00:00:Z","depth":0,"parameterNumber":3,"parameterNumberName":"V-component_of_WINDS"},"data":[0,0,0,-6.9375,-6.9377,-6.9479,-6.9479,-6.9611,-6.9612,0,0,0,0,0,0,0,0,0,0,0,-6.935,-6.9351,-6.9375,-6.9378,-6.9479,-6.9479,-6.9611,-6.9612,0,0,0,0,0,0,0,0,0,0,0,-6.9349,-6.9351,-6.9352,-6.9378,-6.9478,-6.9479,-6.9611,-6.9533,0,0,0,0,0,0,0,0,0,0,-6.9434,-6.9416,-6.935,-6.9352,-6.9379,-6.9478,-6.9479,-6.9529,-6.9537,-6.9568,0,-6.9599,0,-6.9608,-6.9622,-6.9622,0,0,0,-6.9373,-6.9408,-6.9432,-6.9352,-6.938,-6.9478,-6.9432,-6.9534,-6.9543,-6.9579,-6.96,-6.9605,-6.961,-6.9623,-6.9623,-6.9822,-6.9823,0,0,-6.9367,-6.937,-6.9425,-6.9439,-6.9427,-6.9429,-6.9435,-6.9539,-6.9561,-6.9601,-6.9608,-6.9612,-6.9624,-6.9625,-6.9821,-6.9823,0,0,0,-6.9355,-6.9366,-6.9387,-6.9433,-6.9452,-6.9432,-6.9439,-6.9556,-6.9563,-6.961,-6.9614,-6.9624,-6.9626,-6.982,-6.9822,-6.9883,0,0,0,-6.9351,-6.9358,-6.9385,-6.9387,-6.945,-6.9506,-6.9454,-6.9556,-6.9568,-6.9613,-6.9624,-6.9627,-6.9819,-6.9821,-6.9879,-6.9912,0,0,0,-6.9342,-6.9357,-6.9374,-6.9387,-6.9431,-6.9504,-6.9517,-6.9559,-6.9571,-6.9622,-6.9628,-6.9818,-6.9821,-6.9875,-6.9905,-6.9967,0,0,0,-6.9331,-6.9424,-6.9375,-6.948,-6.943,-6.9542,-6.9516,-6.9599,-6.965,-6.9625,-6.9819,-6.9822,-6.9874,-6.9901,-6.9963,-7.002,-7.0044,0,0,-6.9449,-6.9438,-6.95,-6.9459,-6.9582,-6.9527,-6.9657,-6.9699,-6.97,-6.9781,-6.9786,-6.988,-6.9905,-6.9966,-7.0176,-7.0195,0,0,0,-6.9538,-6.9583,-6.9615,-6.9666,-6.9704,-6.9739,-6.9762,-6.9778,-6.9848,-6.9743,-6.9918,-6.9933,-6.9968,-6.9996,-7.0012,-7.0043,-6.9834,-6.9834,-6.9834,-6.9707,-6.9707,-6.981,-6.9823,-6.9873,-6.9898,-6.9938,-6.9963,-6.9944,-6.9986,-7.001,-7.0138,-7.017,-7.0183,-7.0215,-7.004,-7.004,-7.004,-7.004,-6.9881,-6.9945,-6.9923,-7.0015,-7.0014,-7.0089,-7.0117,-7.0102,-7.0172,-7.0119,-7.015,-7.0094,-7.0204,-7.0232,-7.0045,-7.0044,-7.0043,-7.0043,-7.0043,-6.9993,-7.0024,-7.0045,-7.0122,-7.018,-7.0188,-7.0258,-7.0252,-7.0247,-7.0278,-7.0304,-7.0303,-7.0302,-7.0291,-7.0291,-7.0292,-7.0292,-7.0292,-7.0293,-7.0101,-7.0123,-7.0184,-7.0235,-7.0269,-7.0313,-7.034,-7.0372,-7.0406,-7.0396,-7.0396,-7.0375,-7.0215,-7.0176,-7.03,-7.0298,-7.0297,-7.0297,-7.0296,-7.0279,-7.0239,-7.0334,-7.0369,-7.0429,-7.0488,-7.0481,-7.0548,-7.0573,-7.0608,-7.058,-7.0462,-7.0449,-7.0436,-7.0404,-7.0579,-7.0579,-7.0579,-7.0579,-7.0375,-7.0369,-7.0467,-7.0523,-7.0576,-7.0581,-7.0687,-7.071,-7.0725,-7.0741,-7.0715,-7.0671,-7.0658,-7.0652,-7.0635,-7.0604,-7.0827,-7.0827,-7.0828,-7.0485,-7.0485,-7.0578,-7.0597,-7.0645,-7.0685,-7.0785,-7.0848,-7.0857,-7.0837,-7.0754,-7.0743,-7.0672,-7.0649,-7.0628,-7.06,-7.0544,0,0]}]]